SHT5F EGLL-EGAC

Flight info

Callsign SHT5F
Flight time N/A
Altitude 36000
Route ULTIB T420 TNT UL28 RODOL UM65 TENSO L603 BELOX DCT REMSI DCT NINEB M148 MAGEE
Aircraft A320/M-SDE3FGHIRWY/LB1

Departure

Time N/A
Airport London Heathrow Airport (EGLL)

Arrival

Time 2026-05-09 09:10
Airport George Best Belfast City Airport (EGAC)
Time Latitude Longitude Altitude Speed Heading
2026-05-09 08:43 53.71018 -2.68674 38218 ft 432 kts 287°
2026-05-09 08:43 53.72089 -2.73415 38218 ft 432 kts 287°
2026-05-09 08:44 53.74218 -2.82904 38217 ft 432 kts 287°
2026-05-09 08:44 53.76336 -2.92402 38218 ft 432 kts 287°
2026-05-09 08:45 53.78448 -3.01905 38220 ft 432 kts 287°
2026-05-09 08:45 53.80563 -3.11419 38220 ft 432 kts 287°
2026-05-09 08:46 53.82668 -3.20941 38216 ft 432 kts 287°
2026-05-09 08:46 53.84759 -3.30483 38217 ft 432 kts 287°
2026-05-09 08:46 53.85804 -3.35266 37762 ft 435 kts 287°
2026-05-09 08:47 53.86859 -3.40087 37059 ft 436 kts 286°
2026-05-09 08:47 53.87897 -3.44849 36364 ft 437 kts 285°
2026-05-09 08:47 53.88953 -3.49692 35602 ft 439 kts 285°
2026-05-09 08:47 53.90014 -3.54561 34800 ft 442 kts 284°
2026-05-09 08:48 53.91077 -3.59468 34053 ft 444 kts 284°
2026-05-09 08:48 53.92132 -3.64351 33536 ft 438 kts 284°
2026-05-09 08:48 53.93169 -3.69169 32986 ft 433 kts 284°
2026-05-09 08:48 53.94198 -3.73955 32438 ft 429 kts 283°
2026-05-09 08:49 53.95216 -3.78702 31887 ft 426 kts 283°
2026-05-09 08:49 53.96333 -3.83357 31341 ft 428 kts 290°
2026-05-09 08:49 53.97795 -3.87776 30791 ft 428 kts 293°
2026-05-09 08:49 53.99276 -3.92139 30233 ft 425 kts 293°
2026-05-09 08:50 54.00746 -3.96470 29634 ft 421 kts 294°
2026-05-09 08:50 54.02196 -4.00759 29108 ft 416 kts 294°
2026-05-09 08:50 54.03620 -4.05000 28582 ft 411 kts 294°
2026-05-09 08:50 54.05024 -4.09195 28081 ft 406 kts 294°
2026-05-09 08:51 54.06444 -4.13314 27591 ft 403 kts 298°
2026-05-09 08:51 54.08052 -4.17210 27117 ft 400 kts 299°
2026-05-09 08:51 54.09650 -4.21052 26650 ft 395 kts 299°
2026-05-09 08:51 54.11230 -4.24862 26192 ft 392 kts 299°
2026-05-09 08:52 54.12792 -4.28634 25736 ft 388 kts 299°
2026-05-09 08:52 54.14337 -4.32386 25281 ft 384 kts 298°
2026-05-09 08:52 54.15609 -4.36320 24840 ft 374 kts 288°
2026-05-09 08:52 54.16412 -4.40486 24400 ft 367 kts 281°
2026-05-09 08:53 54.17074 -4.44626 23950 ft 366 kts 281°
2026-05-09 08:53 54.17751 -4.48803 23447 ft 364 kts 281°
2026-05-09 08:53 54.18431 -4.52950 22970 ft 362 kts 282°
2026-05-09 08:53 54.19107 -4.57073 22505 ft 359 kts 282°
2026-05-09 08:54 54.19773 -4.61159 22025 ft 356 kts 282°
2026-05-09 08:54 54.20433 -4.65228 21555 ft 354 kts 282°
2026-05-09 08:54 54.21085 -4.69262 21072 ft 351 kts 282°
2026-05-09 08:54 54.21730 -4.73267 20604 ft 348 kts 282°
2026-05-09 08:55 54.22365 -4.77238 20124 ft 345 kts 282°
2026-05-09 08:55 54.22994 -4.81186 19645 ft 342 kts 282°
2026-05-09 08:55 54.23617 -4.85098 19175 ft 340 kts 282°
2026-05-09 08:55 54.24235 -4.88983 18707 ft 337 kts 282°
2026-05-09 08:56 54.24847 -4.92835 18200 ft 335 kts 283°
2026-05-09 08:56 54.25452 -4.96653 17730 ft 331 kts 283°
2026-05-09 08:56 54.26048 -5.00428 17272 ft 327 kts 283°
2026-05-09 08:56 54.26656 -5.04157 16575 ft 324 kts 284°
2026-05-09 08:57 54.27334 -5.07818 15696 ft 321 kts 286°
2026-05-09 08:57 54.28045 -5.11389 14903 ft 315 kts 287°
2026-05-09 08:57 54.28766 -5.14943 14189 ft 311 kts 287°
2026-05-09 08:57 54.29468 -5.18398 13789 ft 307 kts 287°
2026-05-09 08:58 54.30161 -5.21837 13496 ft 305 kts 287°
2026-05-09 08:58 54.30834 -5.25252 13111 ft 301 kts 286°
2026-05-09 08:58 54.31489 -5.28638 12719 ft 298 kts 286°
2026-05-09 08:58 54.32126 -5.31957 12329 ft 296 kts 286°
2026-05-09 08:59 54.32774 -5.35351 11931 ft 296 kts 286°
2026-05-09 08:59 54.33410 -5.38650 11541 ft 295 kts 287°
2026-05-09 08:59 54.34056 -5.41985 11142 ft 295 kts 287°
2026-05-09 08:59 54.34698 -5.45314 10748 ft 294 kts 287°
2026-05-09 09:00 54.35336 -5.48639 10393 ft 292 kts 287°
2026-05-09 09:00 54.35960 -5.51890 10247 ft 283 kts 287°
2026-05-09 09:00 54.36568 -5.55062 10101 ft 279 kts 287°
2026-05-09 09:00 54.37183 -5.58287 9524 ft 286 kts 287°
2026-05-09 09:01 54.37788 -5.61463 9166 ft 277 kts 287°
2026-05-09 09:01 54.38385 -5.64592 8487 ft 274 kts 287°
2026-05-09 09:01 54.38976 -5.67689 7877 ft 272 kts 287°
2026-05-09 09:01 54.39561 -5.70770 7190 ft 272 kts 287°
2026-05-09 09:02 54.40144 -5.73861 6508 ft 271 kts 288°
2026-05-09 09:02 54.40567 -5.76888 6332 ft 250 kts 274°
2026-05-09 09:02 54.40583 -5.79766 6138 ft 235 kts 269°
2026-05-09 09:02 54.40536 -5.82449 6102 ft 214 kts 269°
2026-05-09 09:03 54.40476 -5.85030 5519 ft 219 kts 269°
2026-05-09 09:03 54.40423 -5.87651 5071 ft 218 kts 278°
2026-05-09 09:03 54.40843 -5.90000 5007 ft 197 kts 303°
2026-05-09 09:03 54.41526 -5.92022 5039 ft 196 kts 303°
2026-05-09 09:04 54.42265 -5.93980 4772 ft 195 kts 316°
2026-05-09 09:04 54.43351 -5.95252 4374 ft 185 kts 336°
2026-05-09 09:04 54.44501 -5.96211 3911 ft 183 kts 338°
2026-05-09 09:04 54.45648 -5.97151 3486 ft 182 kts 338°
2026-05-09 09:05 54.46784 -5.98104 3048 ft 181 kts 338°
2026-05-09 09:05 54.47861 -5.99029 2901 ft 166 kts 338°
2026-05-09 09:05 54.48856 -5.99889 2653 ft 162 kts 336°
2026-05-09 09:05 54.49910 -6.00407 2610 ft 155 kts
2026-05-09 09:06 54.50945 -6.00102 2522 ft 155 kts 21°
2026-05-09 09:06 54.51824 -5.99128 2341 ft 141 kts 32°
2026-05-09 09:06 54.52606 -5.98208 2159 ft 132 kts 31°
2026-05-09 09:06 54.53349 -5.97334 1976 ft 128 kts 31°
2026-05-09 09:07 54.54073 -5.96476 1805 ft 125 kts 31°
2026-05-09 09:07 54.54791 -5.95625 1631 ft 126 kts 30°
2026-05-09 09:07 54.55509 -5.94771 1463 ft 126 kts 31°
2026-05-09 09:07 54.55817 -5.94409 1389 ft 125 kts 30°
2026-05-09 09:08 54.56530 -5.93558 1191 ft 124 kts 31°
2026-05-09 09:08 54.57241 -5.92709 1019 ft 125 kts 31°
2026-05-09 09:08 54.57958 -5.91848 847 ft 125 kts 31°
2026-05-09 09:08 54.58670 -5.90970 643 ft 127 kts 32°
2026-05-09 09:09 54.59402 -5.90120 487 ft 127 kts 31°
2026-05-09 09:09 54.60124 -5.89246 314 ft 126 kts 29°
2026-05-09 09:09 54.60846 -5.88403 126 ft 128 kts 30°
2026-05-09 09:09 54.61560 -5.87549 16 ft 112 kts 31°
2026-05-09 09:10 54.62010 -5.87013 14 ft 25 kts 36°
2026-05-09 09:10 54.62155 -5.86845 13 ft 26 kts 36°
2026-05-09 09:10 54.62303 -5.86665 16 ft 27 kts 34°
2026-05-09 09:10 54.62433 -5.86553 18 ft 16 kts
2026-05-09 09:11 54.62459 -5.86457 17 ft 5 kts 148°
2026-05-09 09:11 54.62431 -5.86485 18 ft 9 kts 219°
2026-05-09 09:11 54.62357 -5.86587 18 ft 16 kts 218°
2026-05-09 09:11 54.62255 -5.86721 18 ft 20 kts 214°
2026-05-09 09:12 54.62125 -5.86876 13 ft 26 kts 214°
2026-05-09 09:12 54.61973 -5.87068 13 ft 29 kts 218°
2026-05-09 09:12 54.61852 -5.87177 15 ft 14 kts 170°
2026-05-09 09:12 54.61781 -5.87044 17 ft 16 kts 124°
2026-05-09 09:13 54.61688 -5.87033 16 ft 16 kts 214°
2026-05-09 09:13 54.61592 -5.87150 18 ft 18 kts 215°
2026-05-09 09:13 54.61502 -5.87217 17 ft 10 kts 168°
2026-05-09 09:13 54.61472 -5.87196 20 ft 0 kts 156°
2026-05-09 09:15 54.56317 -5.93813 1239 ft 124 kts 31°
2026-05-09 09:15 54.57026 -5.92967 1075 ft 125 kts 30°
2026-05-09 09:16 54.57742 -5.92110 903 ft 125 kts 31°
2026-05-09 09:16 54.59169 -5.90381 549 ft 127 kts 29°
2026-05-09 09:16 54.59896 -5.89520 367 ft 127 kts 32°
2026-05-09 09:17 54.60624 -5.88663 201 ft 127 kts 31°
2026-05-09 09:17 54.61354 -5.87797 32 ft 123 kts 29°
2026-05-09 09:17 54.61817 -5.87250 15 ft 92 kts 36°
2026-05-09 09:17 54.60473 -5.88838 227 ft 127 kts 30°
2026-05-09 09:18 54.61025 -5.88189 79 ft 128 kts 32°
2026-05-09 09:18 54.61583 -5.87521 15 ft 111 kts 31°
2026-05-09 09:19 54.61532 -5.87583 15 ft 114 kts 32°
2026-05-09 09:19 54.61299 -5.87863 39 ft 125 kts 30°
2026-05-09 09:19 54.61593 -5.87509 14 ft 110 kts 30°
2026-05-09 09:19 54.62018 -5.87004 14 ft 24 kts 34°
2026-05-09 09:20 54.60253 -5.89093 283 ft 127 kts 30°
2026-05-09 09:20 54.60742 -5.88525 161 ft 127 kts 30°
2026-05-09 09:20 54.61474 -5.87652 12 ft 118 kts 31°
2026-05-09 09:20 54.61987 -5.87043 13 ft 42 kts 36°
2026-05-09 09:21 54.61472 -5.87196 18 ft 0 kts 156°